Change the Weather History Date:

Wednesday, November 2, 2011

  Actual Average Record
Temperature  
Mean Temperature 44 °F -  
Max Temperature 48 °F 49 °F 69 °F (1938)
Min Temperature 39 °F 32 °F 4 °F (1951)
Degree Days  
Heating Degree Days 22    
Moisture  
Dew Point 37 °F    
Average Humidity 77    
Maximum Humidity 86    
Minimum Humidity 66    
Precipitation  
Precipitation 0.01 in - - ()
Sea Level Pressure  
Sea Level Pressure 30.10 in    
Wind  
Wind Speed 8 mph (North)    
Max Wind Speed 16 mph    
Max Gust Speed 21 mph    
Visibility 10 miles    
Events Rain    
Averages and records for this station are not official NWS values.
T = Trace of Precipitation, MM = Missing Value Source: NWS Daily Summary

Daily Weather History Graph

Daily Weather History Graph

Search for Another Location

Airport or City:

Trip Planner

Search our weather history database for the weather conditions in past years. The results will help you decide how hot, cold, wet, or windy it might be!

Date:

Astronomy

Nov. 02, 2011 Rise Set
Actual Time 7:39 AM CDT 5:48 PM CDT
Civil Twilight 7:08 AM CDT 6:18 PM CDT
Nautical Twilight 6:34 AM CDT 6:53 PM CDT
Astronomical Twilight 6:00 AM CDT 7:27 PM CDT
Moon 1:58 PM CDT (11/2) No Moon Set
Length of Visible Light 11h 09m
Length of Day
10h 09m
Waxing Crescent, 50% of the Moon is Illuminated
Nov 2
Waxing Crescent
Nov 10
Full
Nov 18
Last Quarter
Nov 25
New
Dec 2
First Quarter

Hourly Weather History & Observations

Time (CDT) Temp. Windchill Dew Point Humidity Pressure Visibility Wind Dir Wind Speed Gust Speed Precip Events Conditions
12:54 AM 48.0 °F - 37.0 °F 66% 29.97 in 10.0 mi NE 6.9 mph - N/A   Overcast
1:54 AM 48.0 °F - 37.0 °F 66% 29.97 in 10.0 mi NE 6.9 mph - N/A   Overcast
2:54 AM 48.0 °F - 37.9 °F 68% 30.00 in 10.0 mi NNE 6.9 mph - N/A   Overcast
3:54 AM 46.9 °F - 37.9 °F 71% 30.01 in 10.0 mi North 10.4 mph - N/A   Overcast
5:54 AM 45.0 °F 40.6 °F 39.9 °F 82% 30.06 in 10.0 mi North 8.1 mph 17.3 mph N/A   Overcast
6:11 AM 44.6 °F 39.7 °F 39.2 °F 81% 30.05 in 10.0 mi North 9.2 mph - N/A   Overcast
6:54 AM 45.0 °F 40.6 °F 39.0 °F 80% 30.07 in 10.0 mi NNE 8.1 mph - N/A   Overcast
7:02 AM 44.6 °F 40.2 °F 37.4 °F 76% 30.05 in 10.0 mi NNE 8.1 mph - N/A   Overcast
7:54 AM 45.0 °F 41.8 °F 37.9 °F 76% 30.09 in 10.0 mi NNE 5.8 mph - N/A   Overcast
8:54 AM 44.1 °F 39.0 °F 37.9 °F 79% 30.09 in 10.0 mi North 9.2 mph - N/A   Overcast
9:54 AM 44.1 °F 39.5 °F 37.9 °F 79% 30.11 in 10.0 mi North 8.1 mph - 0.00 in   Overcast
10:54 AM 44.1 °F 40.8 °F 39.0 °F 82% 30.12 in 10.0 mi North 5.8 mph - 0.00 in   Overcast
11:54 AM 44.1 °F 38.6 °F 39.0 °F 82% 30.14 in 10.0 mi NNW 10.4 mph - 0.00 in Rain Light Rain
12:54 PM 43.0 °F 35.4 °F 37.9 °F 82% 30.12 in 9.0 mi North 16.1 mph 20.7 mph 0.01 in Rain Light Rain
1:54 PM 42.1 °F 36.1 °F 37.0 °F 82% 30.12 in 9.0 mi North 10.4 mph - 0.00 in Rain Light Rain
2:54 PM 42.1 °F 38.4 °F 37.0 °F 82% 30.12 in 10.0 mi NE 5.8 mph - 0.00 in   Overcast
3:54 PM 42.1 °F 37.7 °F 36.0 °F 79% 30.11 in 10.0 mi North 6.9 mph - N/A   Overcast
4:54 PM 42.1 °F 39.2 °F 36.0 °F 79% 30.14 in 10.0 mi North 4.6 mph - N/A   Overcast
5:54 PM 42.1 °F - 36.0 °F 79% 30.14 in 10.0 mi Calm Calm - N/A   Overcast
7:54 PM 41.0 °F 38.0 °F 36.0 °F 82% 30.17 in 10.0 mi North 4.6 mph - N/A   Clear
8:54 PM 39.0 °F 34.0 °F 35.1 °F 86% 30.17 in 10.0 mi NNW 6.9 mph - N/A   Clear
9:54 PM 41.0 °F 35.8 °F 33.1 °F 73% 30.18 in 10.0 mi North 8.1 mph - N/A   Clear
10:54 PM 39.9 °F 34.5 °F 32.0 °F 73% 30.18 in 10.0 mi North 8.1 mph - N/A   Clear
11:54 PM 39.0 °F 33.4 °F 30.9 °F 73% 30.19 in 10.0 mi North 8.1 mph - N/A   Clear